Location: Smoky Mountain Stargaze
(35.4252°N, 83.3329°W)
Time: 13:55:13
(UTC-05:00)

Amateur Radio Satellites - All Passes

Search period start: 08 February 2016 13:25
Search period end: 09 February 2016 13:25
Location: Smoky Mountain Stargaze, 35.4252°N, 83.3329°W

Satellite Date Start Highest point End Downlink Frequencies (MHz)
Time Altitude Azimuth
SO-50 08 Feb 13:25:45 13:27:50 13° 43° (NE) 13:29:53 436.795
JAS-2 08 Feb 13:26:50 13:34:37 79° 75° (ENE) 13:41:52 435.910
DANDE 08 Feb 13:27:41 13:34:21 43° 73° (ENE) 13:39:29 436.750
AO-7 08 Feb 13:30:48 13:34:51 15° 52° (NE) 13:38:53 29.400- 29.500
BEESAT 08 Feb 13:31:17 13:33:38 13° 93° (E) 13:35:58 436.000
TISAT 1 08 Feb 13:34:09 13:38:20 84° 283° (WNW) 13:42:30 437.305
ITAMSAT 1 08 Feb 13:49:06 13:53:42 34° 70° (ENE) 13:58:21 435.822/435.867
SRMSAT 08 Feb 14:14:27 14:17:58 16° 186° (S) 14:21:30 437.500
SWISSCUBE 08 Feb 14:21:26 14:26:09 55° 101° (E) 14:30:51 437.505
Oscar 19 08 Feb 14:24:24 14:28:07 20° 266° (W) 14:31:51 437.125/150
YUBILEINY 08 Feb 14:24:58 14:33:18 43° 76° (ENE) 14:41:31 435.215
Cosmos 2491 08 Feb 14:27:40 14:34:09 24° 82° (E) 14:40:36 435.465 / 435.565
Gurwin Techsat 1B 08 Feb 14:40:31 14:45:26 39° 262° (W) 14:50:24 435.225
RS-15 08 Feb 14:40:52 14:49:58 27° 324° (NW) 14:59:30 29.354- 29.394
CUSAT 1 08 Feb 14:53:40 14:56:30 14° 280° (W) 14:59:00 437.405
ITUPSAT 1 08 Feb 14:57:20 15:02:08 69° 285° (WNW) 15:06:54 437.325
SO-50 08 Feb 15:04:11 15:08:59 83° 242° (WSW) 15:13:35 436.795
BEESAT 08 Feb 15:07:01 15:11:41 53° 287° (WNW) 15:16:19 436.000
Cosmos 2504 08 Feb 15:09:11 15:13:54 16° 64° (ENE) 15:18:27 435.465 / 435.565
DANDE 08 Feb 15:11:29 15:16:43 24° 277° (W) 15:21:01 436.750
M-CUBED/EXP-1 PRIME 08 Feb 15:14:09 15:17:34 33° 69° (ENE) 15:20:47 437.505
JAS-2 08 Feb 15:15:09 15:20:01 18° 268° (W) 15:24:44 435.910
AO-7 08 Feb 15:17:52 15:26:11 74° 70° (ENE) 15:34:32 29.400- 29.500
STARS 08 Feb 15:25:05 15:27:35 15° 94° (E) 15:30:03 437.465
AUBIESAT-1 08 Feb 15:25:22 15:28:50 37° 70° (ENE) 15:32:07 437.475
ITAMSAT 1 08 Feb 15:28:59 15:33:10 25° 264° (W) 15:37:24 435.822/435.867
ISS 08 Feb 15:34:11 15:36:46 22° 130° (SE) 15:39:22 145.825
KKS-1 08 Feb 15:36:22 15:40:32 40° 99° (E) 15:44:41 437.445
HORYU 2 08 Feb 15:58:17 16:02:35 54° 74° (ENE) 16:06:54 437.375
SWISSCUBE 08 Feb 16:00:57 16:03:27 14° 295° (WNW) 16:05:57 437.505
Cosmos 2491 08 Feb 16:21:36 16:30:12 63° 279° (W) 16:38:51 435.465 / 435.565
YUBILEINY 08 Feb 16:22:03 16:29:50 37° 274° (W) 16:37:36 435.215
M-CUBED/EXP-1 PRIME 08 Feb 16:50:36 16:52:15 12° 260° (W) 16:53:49 437.505
MOZHAYETS 4 08 Feb 16:54:34 16:59:11 69° 284° (WNW) 17:03:47
BEESAT 3 08 Feb 16:54:49 16:57:47 20° 111° (ESE) 17:00:46 437.485
CUTE-I 08 Feb 16:56:01 16:59:26 18° 65° (ENE) 17:02:52 437.470
Cosmos 2504 08 Feb 16:59:54 17:08:35 89° 89° (E) 17:16:36 435.465 / 435.565
STARS 08 Feb 17:00:00 17:04:05 39° 288° (WNW) 17:08:09 437.465
AUBIESAT-1 08 Feb 17:02:31 17:03:28 11° 260° (W) 17:04:26 437.475
RS-15 08 Feb 17:03:26 17:08:42 13° 360° (N) 17:14:03 29.354- 29.394
Cubesat XI-IV 08 Feb 17:08:26 17:12:32 23° 67° (ENE) 17:16:40 437.490
ISS 08 Feb 17:10:14 17:13:07 29° 325° (NW) 17:16:00 145.825
AO-7 08 Feb 17:13:41 17:19:33 21° 266° (W) 17:25:27 29.400- 29.500
KKS-1 08 Feb 17:14:03 17:16:45 16° 293° (WNW) 17:19:27 437.445
BEESAT 2 08 Feb 17:16:01 17:19:11 22° 111° (ESE) 17:22:21 435.950
CUBESAT XI-V 08 Feb 17:31:29 17:35:26 26° 96° (E) 17:39:21 437.345
HORYU 2 08 Feb 17:38:09 17:39:26 11° 268° (W) 17:40:43 437.375
GOMX 1 08 Feb 17:50:15 17:53:25 16° 66° (ENE) 17:56:32 467.674
O/OREOS (USA 219) 08 Feb 17:52:00 17:55:36 22° 62° (ENE) 17:59:11 437.305
BRITE-PL 08 Feb 18:11:57 18:17:27 51° 73° (ENE) 18:22:53 437.365/2234.400
LilacSat-2 08 Feb 18:18:26 18:22:16 78° 259° (WSW) 18:26:05 437.200
BEESAT 3 08 Feb 18:31:55 18:35:21 28° 306° (NW) 18:38:50 437.485
CUTE-I 08 Feb 18:33:51 18:39:01 52° 260° (W) 18:44:13 437.470
Cubesat XI-IV 08 Feb 18:47:24 18:52:20 39° 262° (W) 18:57:18 437.490
BEESAT 2 08 Feb 18:53:32 18:56:56 26° 306° (NW) 19:00:22 435.950
Cosmos 2504 08 Feb 18:56:17 19:00:32 15° 283° (WNW) 19:04:41 435.465 / 435.565
AIST 2 08 Feb 18:59:04 19:02:43 30° 113° (ESE) 19:06:24 435.215
HO-68 08 Feb 19:07:26 19:13:42 34° 65° (ENE) 19:19:59 435.675
CUBESAT XI-V 08 Feb 19:08:49 19:12:42 26° 290° (WNW) 19:16:34 437.345
STRAND 1 08 Feb 19:12:55 19:17:41 37° 98° (E) 19:22:26 437.568
DOVE 4 08 Feb 19:14:29 19:19:31 55° 75° (ENE) 19:24:22 437.250
RS-15 08 Feb 19:18:00 19:27:39 26° 36° (NE) 19:37:22 29.354- 29.394
COMPASS 1 08 Feb 19:24:16 19:26:02 13° 67° (ENE) 19:27:50 437.405
CUTE 1.7 + AOD 2 08 Feb 19:25:05 19:28:29 24° 70° (ENE) 19:31:54 437.475
GOMX 1 08 Feb 19:25:36 19:31:00 61° 260° (W) 19:36:15 467.674
O/OREOS (USA 219) 08 Feb 19:30:58 19:34:59 30° 257° (WSW) 19:39:00 437.305
SEEDS 08 Feb 19:34:08 19:37:25 23° 70° (ENE) 19:40:43 437.485
PRISM 08 Feb 19:45:48 19:49:05 22° 96° (E) 19:52:20 437.425
GONETS M04 08 Feb 19:49:54 19:57:45 35° 74° (ENE) 20:05:34
BRITE-PL 08 Feb 19:52:03 19:56:04 20° 267° (W) 20:00:05 437.365/2234.400
AAUSAT CUBESAT 2 08 Feb 19:52:43 19:55:56 22° 70° (ENE) 19:59:09 437.432
AO-85 08 Feb 20:04:36 20:09:37 57° 57° (ENE) 20:14:11 145.980
CANX-2 08 Feb 20:08:58 20:13:10 84° 258° (WSW) 20:17:24 2200.000
Cosmos 2499 08 Feb 20:13:55 20:19:31 19° 67° (ENE) 20:24:49 435.465 / 435.565
FUNcube-1 08 Feb 20:14:18 20:15:36 11° 66° (ENE) 20:16:54 145.935
CINEMA 3 08 Feb 20:19:41 20:24:26 87° 259° (W) 20:28:58 145.822/145.860
CUBEBUG 2 08 Feb 20:36:32 20:40:45 47° 74° (ENE) 20:44:51 437.445
AIST 2 08 Feb 20:37:59 20:41:14 22° 308° (NW) 20:44:30 435.215
UWE-3 08 Feb 20:40:31 20:44:27 36° 73° (ENE) 20:48:20 435.000/436.395/437.385
Oscar 11 08 Feb 20:46:21 20:50:20 38° 73° (ENE) 20:54:20 145.826/435.025
PCSat 08 Feb 20:50:01 20:55:24 64° 61° (ENE) 21:00:46 145.827
STRAND 1 08 Feb 20:52:38 20:56:36 23° 293° (WNW) 21:00:33 437.568
HO-68 08 Feb 20:54:32 21:01:12 41° 261° (W) 21:07:55 435.675
DOVE 4 08 Feb 20:54:38 20:57:24 14° 267° (W) 21:00:08 437.250
COMPASS 1 08 Feb 20:57:14 21:01:11 45° 261° (W) 21:05:12 437.405
CUTE 1.7 + AOD 2 08 Feb 21:00:55 21:04:14 23° 265° (W) 21:07:35 437.475
SEEDS 08 Feb 21:09:39 21:13:01 24° 264° (W) 21:16:24 437.485
DELFI C3 08 Feb 21:16:48 21:20:34 44° 74° (ENE) 21:24:23 145.870
PRISM 08 Feb 21:20:55 21:24:20 25° 290° (WNW) 21:27:43 437.425
AAUSAT CUBESAT 2 08 Feb 21:27:57 21:31:18 24° 264° (W) 21:34:41 437.432
RS-15 08 Feb 21:29:57 21:42:15 82° 61° (ENE) 21:54:36 29.354- 29.394
ZACube-1 08 Feb 21:37:23 21:41:36 65° 259° (W) 21:45:46 437.345
AIST 1 08 Feb 21:43:07 21:46:39 24° 76° (ENE) 21:50:09
GONETS M04 08 Feb 21:46:25 21:54:37 46° 272° (W) 22:02:52
AO-85 08 Feb 21:47:01 21:49:27 14° 255° (WSW) 21:51:48 145.980
FUNcube-1 08 Feb 21:47:17 21:51:24 51° 260° (W) 21:55:28 145.935
UNISAT 6 08 Feb 21:50:02 21:51:32 11° 92° (E) 21:53:02 437.425
AISAT 08 Feb 22:03:54 22:05:59 13° 65° (ENE) 22:08:06 437.250
ISS 08 Feb 22:04:58 22:06:15 12° 25° (NNE) 22:07:32 145.825
Cosmos 2499 08 Feb 22:05:13 22:13:35 75° 267° (W) 22:21:16 435.465 / 435.565
HUMSAT D 08 Feb 22:07:34 22:11:39 76° 78° (ENE) 22:15:44 437.325/437.525
CUBEBUG 2 08 Feb 22:15:51 22:17:33 12° 267° (W) 22:19:15 437.445
UWE-3 08 Feb 22:18:30 22:21:01 15° 266° (W) 22:23:31 435.000/436.395/437.385
ESTCUBE 1 08 Feb 22:19:04 22:22:27 21° 68° (ENE) 22:25:51 437.505/2401.250
UKube-1 08 Feb 22:22:59 22:25:59 19° 68° (ENE) 22:29:00 .
Oscar 11 08 Feb 22:24:11 22:26:36 15° 267° (W) 22:29:01 145.826/435.025
CUBEBUG 1 08 Feb 22:26:21 22:29:23 18° 68° (ENE) 22:32:25 437.445
DX 1 08 Feb 22:31:51 22:35:34 28° 70° (ENE) 22:39:19 434.975-435.025
ANTELSAT 08 Feb 22:32:51 22:36:55 38° 99° (E) 22:41:02 437.575/2403.000
PCSat 08 Feb 22:35:23 22:38:12 14° 257° (WSW) 22:40:59 145.827
TIGRISAT 08 Feb 22:40:07 22:44:16 44° 99° (E) 22:48:29 435.000
POPSAT HIP 1 08 Feb 22:49:28 22:50:55 12° 92° (E) 22:52:22 437.405
NANOSAT C BR1 08 Feb 22:54:28 22:56:29 13° 93° (E) 22:58:31 145.865
DELFI C3 08 Feb 22:54:47 22:55:42 11° 268° (W) 22:56:37 145.870
DUCHIFAT 1 08 Feb 22:56:28 22:58:30 13° 93° (E) 23:00:31 145.980
QB50P1 08 Feb 23:01:04 23:03:49 17° 94° (E) 23:06:33 145.935-145.965
50 SAT 08 Feb 23:19:16 23:22:55 64° 259° (W) 23:26:36 437.505
AIST 1 08 Feb 23:20:44 23:24:06 22° 271° (W) 23:27:26
VELOX 1 08 Feb 23:21:03 23:25:31 85° 256° (WSW) 23:30:01 145.980
UNISAT 6 08 Feb 23:24:17 23:28:29 51° 286° (WNW) 23:32:45 437.425
AISAT 08 Feb 23:37:40 23:42:01 51° 260° (W) 23:46:23 437.250
ISS 08 Feb 23:39:54 23:43:10 81° 43° (NE) 23:46:23 145.825
RS-15 08 Feb 23:44:23 23:53:22 25° 259° (W) 00:02:25 29.354- 29.394
POLYITAN 1 08 Feb 23:51:56 23:56:09 74° 103° (ESE) 00:00:20 437.675
QB50P2 08 Feb 23:52:39 23:56:53 78° 103° (ESE) 00:01:05 145.880/145.840
ESTCUBE 1 08 Feb 23:55:03 23:59:03 31° 263° (W) 00:03:05 437.505/2401.250
UKube-1 08 Feb 23:57:53 00:01:47 33° 262° (W) 00:05:43 .
CUBEBUG 1 09 Feb 00:01:20 00:05:23 35° 262° (W) 00:09:28 437.445
BUGSAT 1 09 Feb 00:01:57 00:05:46 41° 99° (E) 00:09:33 437.445
Cosmos 2499 09 Feb 00:03:56 00:04:58 10° 285° (WNW) 00:06:00 435.465 / 435.565
DX 1 09 Feb 00:08:20 00:11:43 22° 264° (W) 00:15:07 434.975-435.025
SPROUT 09 Feb 00:08:46 00:13:05 87° 257° (WSW) 00:17:24 437.525
ANTELSAT 09 Feb 00:10:38 00:13:19 16° 292° (WNW) 00:16:03 437.575/2403.000
TIGRISAT 09 Feb 00:18:18 00:20:36 14° 293° (WNW) 00:22:53 435.000
TISAT 1 09 Feb 00:22:42 00:26:45 46° 74° (ENE) 00:30:48 437.305
POPSAT HIP 1 09 Feb 00:22:54 00:26:56 46° 286° (WNW) 00:30:57 437.405
NANOSAT C BR1 09 Feb 00:28:28 00:32:24 40° 287° (WNW) 00:36:19 145.865
CUSAT 1 09 Feb 00:29:25 00:31:59 12° 79° (E) 00:34:35 437.405
DUCHIFAT 1 09 Feb 00:30:27 00:34:22 40° 287° (WNW) 00:38:16 145.980
PHONESAT 2.4 09 Feb 00:31:57 00:34:26 20° 145° (SE) 00:36:53 2401.200-2431.200
QB50P1 09 Feb 00:35:55 00:39:39 32° 288° (WNW) 00:43:23 145.935-145.965
BEESAT 09 Feb 00:35:56 00:37:38 12° 63° (ENE) 00:39:19 436.000
Oscar 19 09 Feb 00:59:23 01:02:55 19° 94° (E) 01:06:26 437.125/150
Gurwin Techsat 1B 09 Feb 01:23:15 01:24:14 10° 90° (E) 01:25:13 435.225
SWISSCUBE 09 Feb 01:24:54 01:29:24 44° 72° (ENE) 01:33:55 437.505
BUGSAT 1 09 Feb 01:38:56 01:40:46 13° 294° (WNW) 01:42:35 437.445
ITUPSAT 1 09 Feb 02:00:49 02:05:35 85° 260° (W) 02:10:23 437.325
TISAT 1 09 Feb 02:00:59 02:02:37 12° 267° (W) 02:04:16 437.305
CUSAT 1 09 Feb 02:05:11 02:12:52 72° 95° (E) 02:20:59 437.405
ITAMSAT 1 09 Feb 02:06:09 02:09:08 15° 93° (E) 02:12:06 435.822/435.867
PHONESAT 2.4 09 Feb 02:08:11 02:11:27 75° 339° (NNW) 02:14:44 2401.200-2431.200
BEESAT 09 Feb 02:10:07 02:14:50 66° 259° (W) 02:19:34 436.000
JAS-2 09 Feb 02:26:07 02:31:46 89° 86° (E) 02:37:00 435.910
DANDE 09 Feb 02:29:11 02:36:26 64° 93° (E) 02:44:46 436.750
KKS-1 09 Feb 02:31:45 02:35:27 26° 70° (ENE) 02:39:08 437.445
Cosmos 2491 09 Feb 02:35:36 02:44:12 58° 80° (E) 02:52:48 435.465 / 435.565
Oscar 19 09 Feb 02:37:33 02:42:23 43° 289° (WNW) 02:47:12 437.125/150
BEESAT 3 09 Feb 02:51:42 02:55:38 61° 59° (ENE) 02:59:30 437.485
Gurwin Techsat 1B 09 Feb 02:59:21 03:04:41 77° 285° (WNW) 03:09:59 435.225
SWISSCUBE 09 Feb 03:04:28 03:07:22 16° 267° (W) 03:10:17 437.505
BEESAT 2 09 Feb 03:13:55 03:17:54 69° 60° (ENE) 03:21:50 435.950
YUBILEINY 09 Feb 03:21:34 03:30:00 55° 90° (E) 03:38:31 435.215
AO-7 09 Feb 03:23:52 03:30:49 29° 97° (E) 03:37:41 29.400- 29.500
ITAMSAT 1 09 Feb 03:43:46 03:48:53 55° 287° (WNW) 03:53:58 435.822/435.867
Cosmos 2504 09 Feb 03:45:35 03:49:10 13° 76° (ENE) 03:52:47 435.465 / 435.565
PHONESAT 2.4 09 Feb 03:45:59 03:49:00 32° 356° (N) 03:52:00 2401.200-2431.200
CUSAT 1 09 Feb 03:49:44 03:55:47 24° 292° (WNW) 04:02:00 437.405
MOZHAYETS 4 09 Feb 03:53:06 03:57:37 77° 77° (ENE) 04:02:13
STARS 09 Feb 03:53:06 03:57:29 68° 258° (WSW) 04:01:53 437.465
HORYU 2 09 Feb 03:54:04 03:56:08 13° 93° (E) 03:58:12 437.375
KKS-1 09 Feb 04:08:18 04:11:55 24° 264° (W) 04:15:34 437.445
DANDE 09 Feb 04:13:49 04:20:01 26° 292° (WNW) 04:26:49 436.750
M-CUBED/EXP-1 PRIME 09 Feb 04:30:26 04:33:41 40° 105° (ESE) 04:37:07 437.505
CUBESAT XI-V 09 Feb 04:32:24 04:35:40 19° 68° (ENE) 04:38:58 437.345
Cosmos 2491 09 Feb 04:33:33 04:40:23 27° 277° (W) 04:47:16 435.465 / 435.565
AUBIESAT-1 09 Feb 04:41:05 04:44:26 46° 105° (ESE) 04:47:59 437.475
AIST 2 09 Feb 05:01:04 05:05:12 82° 242° (WSW) 05:09:18 435.215
SO-50 09 Feb 05:14:49 05:19:39 67° 117° (ESE) 05:24:34 436.795
AO-7 09 Feb 05:15:47 05:23:51 56° 293° (WNW) 05:31:51 29.400- 29.500
YUBILEINY 09 Feb 05:19:50 05:27:08 29° 288° (WNW) 05:34:32 435.215
PHONESAT 2.4 09 Feb 05:23:31 05:26:40 43° 13° (NNE) 05:29:48 2401.200-2431.200
HORYU 2 09 Feb 05:28:39 05:32:55 47° 287° (WNW) 05:37:11 437.375
Cubesat XI-IV 09 Feb 05:30:45 05:32:04 11° 91° (E) 05:33:24 437.490
Cosmos 2504 09 Feb 05:32:32 05:40:59 81° 95° (E) 05:49:53 435.465 / 435.565
LilacSat-2 09 Feb 05:56:30 05:58:27 14° 93° (E) 06:00:23 437.200
CUBESAT XI-V 09 Feb 06:08:25 06:12:45 37° 262° (W) 06:17:07 437.345
BRITE-PL 09 Feb 06:22:01 06:25:05 17° 92° (E) 06:28:02 437.365/2234.400
STRAND 1 09 Feb 06:25:48 06:30:31 39° 71° (ENE) 06:35:16 437.568
PRISM 09 Feb 06:34:23 06:35:47 11° 65° (ENE) 06:37:11 437.425
CUTE-I 09 Feb 06:53:47 06:59:11 81° 102° (ESE) 07:04:33 437.470
SO-50 09 Feb 06:57:37 07:00:37 16° 314° (NW) 07:03:38 436.795
PHONESAT 2.4 09 Feb 07:00:49 07:03:57 46° 209° (SSW) 07:07:05 2401.200-2431.200
Cubesat XI-IV 09 Feb 07:07:15 07:12:38 76° 285° (WNW) 07:17:59 437.490
AO-7 09 Feb 07:14:35 07:14:46 10° 312° (NW) 07:14:58 29.400- 29.500
DOVE 4 09 Feb 07:18:17 07:20:48 15° 93° (E) 07:23:16 437.250
LilacSat-2 09 Feb 07:29:28 07:32:50 31° 287° (WNW) 07:36:12 437.200
Cosmos 2504 09 Feb 07:29:37 07:35:23 19° 293° (WNW) 07:41:19 435.465 / 435.565
GOMX 1 09 Feb 07:31:25 07:35:42 49° 99° (E) 07:39:46 467.674
CANX-2 09 Feb 07:57:48 08:01:04 21° 95° (E) 08:04:19 2200.000
BRITE-PL 09 Feb 07:59:28 08:03:45 35° 289° (WNW) 08:07:45 437.365/2234.400
O/OREOS (USA 219) 09 Feb 08:00:38 08:04:51 42° 105° (ESE) 08:09:06 437.305
STRAND 1 09 Feb 08:06:02 08:09:47 21° 265° (W) 08:13:34 437.568
PRISM 09 Feb 08:06:36 08:10:37 51° 260° (W) 08:14:43 437.425
CINEMA 3 09 Feb 08:18:06 08:21:32 24° 96° (E) 08:24:57 145.822/145.860
HO-68 09 Feb 08:25:04 08:31:58 47° 100° (E) 08:38:47 435.675
CUBEBUG 2 09 Feb 08:32:20 08:33:51 12° 93° (E) 08:35:22 437.445
CUTE-I 09 Feb 08:36:38 08:38:29 12° 299° (WNW) 08:40:21 437.470
COMPASS 1 09 Feb 08:43:13 08:47:04 33° 97° (E) 08:50:54 437.405
GONETS M04 09 Feb 08:47:00 08:55:01 44° 88° (E) 09:03:03
Cosmos 2499 09 Feb 08:47:22 08:52:28 17° 79° (ENE) 08:57:36 435.465 / 435.565
CUTE 1.7 + AOD 2 09 Feb 08:47:45 08:52:03 75° 102° (ESE) 08:56:20 437.475
JUGNU 09 Feb 08:50:58 08:53:42 13° 169° (S) 08:56:25 437.505
DOVE 4 09 Feb 08:54:50 08:58:38 33° 288° (WNW) 09:02:21 437.250
SEEDS 09 Feb 08:55:36 08:59:52 68° 102° (ESE) 09:04:05 437.485
GOMX 1 09 Feb 09:11:36 09:13:15 12° 296° (WNW) 09:14:53 467.674
AAUSAT CUBESAT 2 09 Feb 09:12:25 09:16:36 63° 100° (E) 09:20:45 437.432
ZACube-1 09 Feb 09:28:56 09:32:34 28° 97° (E) 09:36:15 437.345
ANTELSAT 09 Feb 09:29:23 09:32:49 23° 70° (ENE) 09:36:13 437.575/2403.000
CANX-2 09 Feb 09:33:14 09:36:53 27° 289° (WNW) 09:40:31 2200.000
TIGRISAT 09 Feb 09:36:19 09:39:56 26° 71° (ENE) 09:43:31 435.000
FUNcube-1 09 Feb 09:38:14 09:42:05 34° 98° (E) 09:46:00 145.935
O/OREOS (USA 219) 09 Feb 09:41:42 09:44:27 16° 301° (WNW) 09:47:13 437.305
RS-15 09 Feb 09:45:58 09:49:42 12° 96° (E) 09:53:28 29.354- 29.394
PCSat 09 Feb 09:49:09 09:51:02 12° 102° (ESE) 09:52:55 145.827
HUMSAT D 09 Feb 09:55:22 09:57:49 15° 94° (E) 10:00:16 437.325/437.525
CINEMA 3 09 Feb 09:55:24 09:58:33 21° 290° (WNW) 10:01:43 145.822/145.860
CUBEBUG 2 09 Feb 10:06:40 10:10:41 46° 286° (WNW) 10:14:46 437.445
UWE-3 09 Feb 10:08:54 10:13:03 62° 285° (WNW) 10:17:18 435.000/436.395/437.385
AIST 1 09 Feb 10:09:57 10:12:48 17° 87° (E) 10:15:37
Oscar 11 09 Feb 10:12:11 10:16:29 65° 284° (WNW) 10:20:47 145.826/435.025
HO-68 09 Feb 10:13:17 10:19:20 31° 296° (WNW) 10:25:25 435.675
AO-85 09 Feb 10:15:04 10:19:59 42° 113° (ESE) 10:25:07 145.980
COMPASS 1 09 Feb 10:19:36 10:22:22 17° 292° (WNW) 10:25:07 437.405
UNISAT 6 09 Feb 10:19:51 10:24:12 86° 253° (WSW) 10:28:31 437.425
SRMSAT 09 Feb 10:26:20 10:28:13 11° 167° (SSE) 10:30:07 437.500
DELFI C3 09 Feb 10:32:23 10:36:25 68° 284° (WNW) 10:40:25 145.870
Cosmos 2499 09 Feb 10:35:41 10:44:20 86° 277° (W) 10:53:17 435.465 / 435.565
JUGNU 09 Feb 10:38:16 10:41:57 17° 180° (S) 10:45:37 437.505
POLYITAN 1 09 Feb 10:41:41 10:45:34 36° 72° (ENE) 10:49:26 437.675
QB50P2 09 Feb 10:42:19 10:46:14 38° 73° (ENE) 10:50:10 145.880/145.840
GONETS M04 09 Feb 10:44:05 10:51:50 36° 286° (WNW) 10:59:40
BUGSAT 1 09 Feb 10:49:17 10:52:25 21° 69° (ENE) 10:55:32 437.445
50 SAT 09 Feb 10:55:03 10:57:12 15° 94° (E) 10:59:21 437.505
ZACube-1 09 Feb 11:05:34 11:08:41 20° 290° (WNW) 11:11:51 437.345
ANTELSAT 09 Feb 11:05:51 11:09:25 25° 264° (W) 11:12:58 437.575/2403.000
POPSAT HIP 1 09 Feb 11:11:54 11:16:08 84° 75° (ENE) 11:20:23 437.405
TIGRISAT 09 Feb 11:13:14 11:16:35 22° 264° (W) 11:19:54 435.000
VELOX 1 09 Feb 11:15:05 11:18:33 22° 96° (E) 11:22:00 145.980
FUNcube-1 09 Feb 11:15:21 11:18:04 17° 292° (WNW) 11:20:49 145.935
NANOSAT C BR1 09 Feb 11:17:03 11:21:17 86° 262° (W) 11:25:31 145.865
DUCHIFAT 1 09 Feb 11:18:47 11:23:02 86° 266° (W) 11:27:15 145.980
QB50P1 09 Feb 11:24:39 11:28:51 67° 258° (WSW) 11:33:05 145.935-145.965
PCSat 09 Feb 11:28:18 11:33:42 75° 297° (WNW) 11:39:09 145.827
HUMSAT D 09 Feb 11:29:43 11:33:33 36° 287° (WNW) 11:37:24 437.325/437.525
AISAT 09 Feb 11:31:08 11:35:13 36° 98° (E) 11:39:15 437.250
AIST 1 09 Feb 11:46:07 11:50:04 33° 282° (WNW) 11:54:04
UKube-1 09 Feb 11:47:39 11:51:52 49° 101° (E) 11:56:01 .
RS-15 09 Feb 11:48:50 11:59:47 73° 114° (ESE) 12:11:19 29.354- 29.394
ESTCUBE 1 09 Feb 11:49:58 11:54:31 68° 101° (ESE) 11:59:01 437.505/2401.250
CUBEBUG 1 09 Feb 11:52:41 11:56:57 52° 100° (E) 12:01:10 437.445
AO-85 09 Feb 11:56:09 12:00:40 27° 310° (NW) 12:05:18 145.980
DX 1 09 Feb 11:58:22 12:02:44 81° 102° (ESE) 12:07:04 434.975-435.025
SPROUT 09 Feb 11:58:54 12:02:02 20° 95° (E) 12:05:08 437.525
SRMSAT 09 Feb 12:12:58 12:16:37 17° 177° (S) 12:20:16 437.500
Oscar 19 09 Feb 12:13:21 12:17:10 21° 67° (ENE) 12:21:00 437.125/150
POLYITAN 1 09 Feb 12:18:57 12:21:28 15° 266° (W) 12:24:00 437.675
QB50P2 09 Feb 12:19:47 12:22:10 15° 266° (W) 12:24:34 145.880/145.840
BUGSAT 1 09 Feb 12:24:00 12:27:37 27° 263° (W) 12:31:13 437.445
JUGNU 09 Feb 12:27:18 12:30:11 14° 190° (S) 12:33:04 437.505
50 SAT 09 Feb 12:27:55 12:31:16 30° 288° (WNW) 12:34:38 437.505
JAS-2 09 Feb 12:33:21 12:39:59 33° 68° (ENE) 12:46:11 435.910
Cosmos 2499 09 Feb 12:33:47 12:38:43 16° 295° (WNW) 12:43:45 435.465 / 435.565
Gurwin Techsat 1B 09 Feb 12:40:36 12:43:17 14° 63° (ENE) 12:45:59 435.225
CUSAT 1 09 Feb 12:48:12 12:53:23 34° 72° (ENE) 12:57:23 437.405
VELOX 1 09 Feb 12:51:15 12:54:58 27° 290° (WNW) 12:58:40 145.980
AISAT 09 Feb 13:08:30 13:11:24 17° 293° (WNW) 13:14:16 437.250
PCSat 09 Feb 13:16:48 13:18:01 11° 316° (NW) 13:19:15 145.827
